Weather History for Culdrose, United Kingdom

Change the Weather History Date:

Monday, November 26, 2012

  Actual Average Record
Temperature  
Mean Temperature 45 °F -  
Max Temperature 46 °F 48 °F - ()
Min Temperature 44 °F 40 °F - ()
Degree Days  
Heating Degree Days 20    
Moisture  
Dew Point 43 °F    
Average Humidity 90    
Maximum Humidity 100    
Minimum Humidity 85    
Precipitation  
Precipitation 0.51 in - - ()
Sea Level Pressure  
Sea Level Pressure 29.57 in    
Wind  
Wind Speed 17 mph ()    
Max Wind Speed 34 mph    
Max Gust Speed 60 mph    
Visibility 5.2 miles    
Events Rain    
T = Trace of Precipitation, MM = Missing Value Source: Averaged Metar Reports

Daily Weather History Graph

Daily Weather History Graph

Search for Another Location

Airport:

Trip Planner

Search our weather history database for the weather conditions in past years. The results will help you decide how hot, cold, wet, or windy it might be!

Date:

Astronomy

Nov. 26, 2012 Rise Set
Actual Time 7:51 AM GMT 4:24 PM GMT
Civil Twilight 7:14 AM GMT 5:01 PM GMT
Nautical Twilight 6:34 AM GMT 5:42 PM GMT
Astronomical Twilight 5:55 AM GMT 6:21 PM GMT
Moon 3:14 PM GMT (11/26) 5:41 AM GMT (11/26)
Length of Visible Light 9h 47m
Length of Day
8h 33m
Waxing Gibbous, 96% of the Moon is Illuminated
Nov 26
Waxing Gibbous
Nov 28
Full
Dec 6
Last Quarter
Dec 13
New
Dec 20
First Quarter

Hourly Weather History & Observations

Time (GMT) Temp. Windchill Dew Point Humidity Pressure Visibility Wind Dir Wind Speed Gust Speed Precip Events Conditions
12:50 AM 50.0 °F - 46.4 °F 87% 29.39 in 6.2 mi SW 15.0 mph - N/A Rain Light Rain
1:50 AM 46.4 °F 43.5 °F 44.6 °F 93% 29.39 in 6.2 mi West 5.8 mph - N/A Rain Rain
2:50 AM 46 °F - 45 °F 95% 29.39 in 9 mi WNW 8.1 mph - - Rain Light Rain
2:50 AM 46.4 °F 42.4 °F 44.6 °F 93% 29.36 in 6.2 mi WNW 8.1 mph - N/A Rain Light Rain
3:50 AM 44.6 °F 38.8 °F 42.8 °F 93% 29.39 in 6.2 mi WNW 11.5 mph - N/A   Scattered Clouds
4:50 AM 44.6 °F 37.4 °F 42.8 °F 93% 29.39 in 6.2 mi NW 16.1 mph 27.6 mph N/A Rain Light Rain
5:50 AM 46 °F - 43 °F 85% 29.43 in 12 mi NW 13.8 mph - - Rain Light Rain
5:50 AM 46.4 °F 40.4 °F 42.8 °F 87% 29.42 in 6.2 mi NW 13.8 mph - N/A   Mostly Cloudy
6:50 AM 44.6 °F 37.4 °F 44.6 °F 100% 29.44 in 6.2 mi NW 16.1 mph 27.6 mph N/A   Mostly Cloudy
7:50 AM 46.4 °F 40.4 °F 44.6 °F 93% 29.44 in 6.2 mi North 13.8 mph 26.5 mph N/A   Mostly Cloudy
8:50 AM 45 °F - 44 °F 94% 29.53 in 2 mi North 29.9 mph - - Rain Heavy Rain Showers
8:50 AM 44.6 °F 34.7 °F 44.6 °F 100% 29.50 in 2.5 mi North 29.9 mph 43.7 mph N/A Rain Rain Showers
9:50 AM 46.4 °F 38.5 °F 42.8 °F 87% 29.53 in 6.2 mi NNW 21.9 mph 36.8 mph N/A   Haze
10:50 AM 46.4 °F 38.5 °F 42.8 °F 87% 29.59 in 6.2 mi NNW 21.9 mph 36.8 mph N/A   Haze
11:50 AM 46 °F - 43 °F 86% 29.60 in 9 mi NNW 25.3 mph - - Rain Light Rain Showers
12:50 PM 44.6 °F 36.1 °F 42.8 °F 93% 29.56 in 6.2 mi NNW 21.9 mph 40.3 mph N/A   Haze
1:50 PM 46.4 °F 36.5 °F 42.8 °F 87% 29.56 in 3.7 mi NNW 34.5 mph 59.8 mph N/A Rain Light Rain Showers
2:50 PM 45 °F - 43 °F 92% 29.60 in 2 mi NNW 32.2 mph - - Rain Heavy Rain Showers
2:50 PM 44.6 °F 34.4 °F 42.8 °F 93% 29.59 in 2.5 mi NNW 32.2 mph 50.6 mph N/A Rain Rain Showers
3:50 PM 44.6 °F 34.9 °F 42.8 °F 93% 29.62 in 1.9 mi North 28.8 mph 52.9 mph N/A Rain Rain Showers
4:12 PM 44.6 °F 34.9 °F 42.8 °F 93% 29.65 in 1.2 mi North 28.8 mph 51.8 mph N/A Rain Rain Showers
4:50 PM 44.6 °F 35.5 °F 42.8 °F 93% 29.65 in 1.9 mi North 25.3 mph 46.0 mph N/A Rain Rain Showers
5:50 PM 46 °F - 43 °F 86% 29.70 in 2 mi North 25.3 mph - - Rain Light Rain Showers
5:50 PM 46.4 °F 37.9 °F 42.8 °F 87% 29.68 in 1.9 mi North 25.3 mph 43.7 mph N/A Rain Light Rain Showers
6:50 PM 46.4 °F 38.1 °F 44.6 °F 93% 29.68 in 3.1 mi North 24.2 mph 42.6 mph N/A Rain Light Rain Showers
7:50 PM 46.4 °F 38.3 °F 42.8 °F 87% 29.71 in 6.2 mi North 23.0 mph 39.1 mph N/A   Mostly Cloudy
8:50 PM 46 °F - 43 °F 87% 29.75 in 3 mi North 20.7 mph - - Rain Light Rain Showers
8:50 PM 46.4 °F 38.7 °F 42.8 °F 87% 29.74 in 3.1 mi North 20.7 mph 35.7 mph N/A Rain Light Rain Showers
9:50 PM 46.4 °F 38.7 °F 42.8 °F 87% 29.74 in 6.2 mi NNW 20.7 mph 34.5 mph N/A   Mostly Cloudy
10:50 PM 46.4 °F 39.0 °F 42.8 °F 87% 29.74 in 6.2 mi NNW 19.6 mph 33.4 mph N/A   Mostly Cloudy
11:50 PM 46 °F - 43 °F 86% 29.75 in 12 mi NNW 20.7 mph - - Rain Light Rain Showers
11:50 PM 46.4 °F 38.7 °F 42.8 °F 87% 29.74 in 6.2 mi NNW 20.7 mph 38.0 mph N/A   Mostly Cloudy